Date String (YYYY-MM-DD hh:mm:ss) UTC,Instrument flags,Ambient pressure (hPa),Sample flow (lpm),Bypass flow (lpm),Sample temperature (°C),Ambient temperature (°C),ASC tube jacket temperature (°C),LED temperature (°C),Box temperature (°C),Sample RH (%),Span deviation,Mass concentration (μg/m³),Mass concentration (μg/m³),Mass concentration (μg/m³)
DateTimeUTC,F1_M11,P_M11,Q1_M11,Q2_M11,T1_M11,T2_M11,T3_M11,T4_M11,T5_M11,U1_M11,ZSPAN_M11,X0_M11,X2_M11,X1_M11
2022-11-10 12:00:00,,0822.3,5.00,0.00,22.0,20.6,00.0,30.8,23.9,12.9,0000.0,0001.01,0000.37,0000.19
2022-11-10 12:01:00,,0822.3,5.02,0.00,22.0,20.5,00.0,30.8,23.9,13.3,0000.0,0001.42,0000.38,0000.19
2022-11-10 12:02:00,,0822.3,4.98,0.00,22.0,20.5,00.0,30.8,23.9,13.7,0000.0,0001.54,0000.39,0000.20
2022-11-10 12:03:00,,0822.3,5.00,0.00,22.0,20.6,00.0,30.8,23.9,13.9,0000.0,0001.92,0000.40,0000.19
2022-11-10 12:04:00,,0822.4,5.00,0.00,22.0,20.6,00.0,30.8,23.9,13.9,0000.0,0002.88,0000.44,0000.19
2022-11-10 12:05:00,,0822.4,5.00,0.00,22.0,20.5,00.0,30.8,23.8,14.0,0000.0,0004.01,0000.47,0000.20
2022-11-10 12:06:00,,0822.4,5.01,0.00,22.0,20.5,00.0,30.8,23.8,13.9,0000.0,0004.98,0000.45,0000.19
2022-11-10 12:07:00,,0822.4,5.00,0.00,22.0,20.3,00.0,30.8,23.8,13.7,0000.0,0005.06,0000.43,0000.19
2022-11-10 12:08:00,,0822.4,5.00,0.00,21.9,20.3,00.0,30.8,23.8,13.6,0000.0,0006.49,0000.44,0000.20
2022-11-10 12:09:00,,0822.4,5.00,0.00,21.9,20.2,00.0,30.8,23.8,13.6,0000.0,0006.58,0000.46,0000.22
2022-11-10 12:10:00,,0822.3,5.00,0.00,21.9,20.2,00.0,30.7,23.8,13.6,0000.0,0006.65,0000.51,0000.26
2022-11-10 12:11:00,,0822.4,5.00,0.00,21.9,20.2,00.0,30.7,23.8,13.4,0000.0,0006.68,0000.54,0000.29
2022-11-10 12:12:00,,0822.4,4.99,0.00,21.9,20.3,00.0,30.7,23.7,12.7,0000.0,0006.42,0000.54,0000.30
2022-11-10 12:13:00,,0822.4,5.00,0.00,21.9,20.5,00.0,30.7,23.8,12.2,0000.0,0006.04,0000.52,0000.29
2022-11-10 12:14:00,,0822.4,5.00,0.00,22.0,21.4,00.0,30.7,23.9,11.9,0000.0,0005.90,0000.50,0000.30
2022-11-10 12:15:00,,0822.5,5.00,0.00,22.1,22.2,00.0,30.7,24.1,11.5,0000.0,0004.73,0000.47,0000.30
2022-11-10 12:16:00,,0822.4,5.00,0.00,22.1,22.0,00.0,30.8,24.1,11.2,0000.0,0003.82,0000.45,0000.29
2022-11-10 12:17:00,,0822.4,5.00,0.00,22.2,21.7,00.0,30.8,24.1,11.6,0000.0,0002.70,0000.44,0000.30
2022-11-10 12:18:00,,0822.4,5.01,0.00,22.2,21.5,00.0,30.8,24.1,11.6,0000.0,0003.84,0000.48,0000.31
2022-11-10 12:19:00,,0822.4,5.01,0.00,22.2,21.4,00.0,30.8,24.1,11.8,0000.0,0002.34,0000.53,0000.32
2022-11-10 12:20:00,,0822.4,5.00,0.00,22.2,21.3,00.0,30.8,24.1,11.6,0000.0,0002.33,0000.51,0000.30
2022-11-10 12:21:00,,0822.4,5.00,0.00,22.2,21.3,00.0,30.9,24.1,11.2,0000.0,0002.28,0000.48,0000.27
2022-11-10 12:22:00,,0822.4,5.00,0.00,22.2,21.2,00.0,30.9,24.1,10.7,0000.0,0002.29,0000.45,0000.24
2022-11-10 12:23:00,,0822.4,4.99,0.00,22.2,21.1,00.0,30.9,24.1,10.4,0000.0,0002.38,0000.45,0000.23
2022-11-10 12:24:00,,0822.4,4.99,0.00,22.2,21.0,00.0,30.9,24.0,10.3,0000.0,0002.44,0000.45,0000.23
2022-11-10 12:25:00,,0822.4,5.00,0.00,22.2,20.9,00.0,30.9,24.0,10.3,0000.0,0002.44,0000.45,0000.23
2022-11-10 12:26:00,,0822.4,5.01,0.00,22.2,20.9,00.0,30.9,24.0,10.2,0000.0,0002.45,0000.45,0000.23
2022-11-10 12:27:00,,0822.4,5.00,0.00,22.1,20.8,00.0,30.9,23.9,10.2,0000.0,0002.60,0000.44,0000.23
2022-11-10 12:28:00,,0822.4,5.00,0.00,22.1,20.8,00.0,30.9,23.9,10.1,0000.0,0002.83,0000.45,0000.23
2022-11-10 12:29:00,,0822.3,5.00,0.00,22.1,20.7,00.0,30.9,23.9,10.1,0000.0,0001.74,0000.43,0000.23
2022-11-10 12:30:00,,0822.3,5.01,0.00,22.1,20.6,00.0,30.9,23.9,10.0,0000.0,0001.55,0000.39,0000.22
2022-11-10 12:31:00,,0822.2,5.00,0.00,22.1,20.6,00.0,30.9,23.9,09.9,0000.0,0001.47,0000.37,0000.22
2022-11-10 12:32:00,,0822.2,4.99,0.00,22.1,20.5,00.0,30.9,23.8,09.6,0000.0,0001.44,0000.36,0000.21
2022-11-10 12:33:00,,0822.2,5.00,0.00,22.0,20.4,00.0,30.9,23.8,09.7,0000.0,0001.37,0000.34,0000.20
2022-11-10 12:34:00,,0822.3,5.01,0.00,22.0,20.4,00.0,30.9,23.7,09.8,0000.0,0001.24,0000.32,0000.20
2022-11-10 12:35:00,,0822.3,5.01,0.00,22.0,20.4,00.0,30.9,23.7,09.8,0000.0,0001.16,0000.31,0000.20
2022-11-10 12:36:00,,0822.4,4.99,0.00,22.0,20.6,00.0,30.9,23.8,09.9,0000.0,0001.14,0000.31,0000.20
2022-11-10 12:37:00,,0822.3,5.00,0.00,22.1,21.6,00.0,30.8,24.0,10.0,0000.0,0001.16,0000.32,0000.20
2022-11-10 12:38:00,,0822.3,5.00,0.00,22.2,22.5,00.0,30.9,24.3,09.7,0000.0,0001.08,0000.31,0000.19
2022-11-10 12:39:00,,0822.3,4.98,0.00,22.3,22.5,00.0,30.9,24.3,09.7,0000.0,0000.57,0000.30,0000.19
2022-11-10 12:40:00,,0822.3,5.02,0.00,22.3,22.1,00.0,30.9,24.3,09.8,0000.0,0000.60,0000.31,0000.18
2022-11-10 12:41:00,,0822.4,4.99,0.00,22.3,21.8,00.0,31.0,24.3,09.9,0000.0,0000.64,0000.31,0000.18
2022-11-10 12:42:00,,0822.3,4.99,0.00,22.3,21.5,00.0,31.0,24.2,09.9,0000.0,0000.63,0000.32,0000.18
2022-11-10 12:43:00,,0822.3,5.01,0.00,22.3,21.4,00.0,31.0,24.2,09.8,0000.0,0000.63,0000.31,0000.18
2022-11-10 12:44:00,,0822.2,5.01,0.00,22.3,21.1,00.0,31.0,24.1,09.7,0000.0,0000.61,0000.30,0000.18
2022-11-10 12:45:00,,0822.2,5.00,0.00,22.2,21.0,00.0,31.0,24.0,09.6,0000.0,0000.64,0000.31,0000.18
2022-11-10 12:46:00,,0822.2,5.00,0.00,22.2,20.9,00.0,31.0,24.0,09.6,0000.0,0000.66,0000.32,0000.18
2022-11-10 12:47:00,,0822.2,5.00,0.00,22.2,20.8,00.0,31.0,24.0,09.6,0000.0,0000.69,0000.33,0000.18
2022-11-10 12:48:00,,0822.2,5.00,0.00,22.2,20.7,00.0,31.0,23.9,09.3,0000.0,0000.67,0000.31,0000.18
2022-11-10 12:49:00,,0822.2,5.01,0.00,22.2,20.6,00.0,31.0,23.9,09.3,0000.0,0000.64,0000.30,0000.18
2022-11-10 12:50:00,,0822.1,5.00,0.00,22.1,20.6,00.0,31.0,23.9,09.4,0000.0,0000.90,0000.32,0000.18
2022-11-10 12:51:00,,0822.1,5.00,0.00,22.1,20.5,00.0,31.0,23.9,09.4,0000.0,0000.98,0000.31,0000.18
2022-11-10 12:52:00,,0822.1,4.99,0.00,22.1,20.5,00.0,31.0,23.9,09.4,0000.0,0000.90,0000.29,0000.18
2022-11-10 12:53:00,,0822.1,5.00,0.00,22.1,20.4,00.0,31.0,23.8,09.4,0000.0,0001.02,0000.32,0000.18
2022-11-10 12:54:00,,0822.1,4.99,0.00,22.0,20.4,00.0,31.0,23.8,09.4,0000.0,0001.06,0000.33,0000.17
2022-11-10 12:55:00,,0822.1,5.00,0.00,22.0,20.5,00.0,30.9,23.8,09.5,0000.0,0001.16,0000.37,0000.17
2022-11-10 12:56:00,,0822.1,5.02,0.00,22.1,21.4,00.0,30.9,24.0,09.5,0000.0,0001.20,0000.38,0000.17
2022-11-10 12:57:00,,0822.1,5.00,0.00,22.2,22.2,00.0,30.9,24.2,09.4,0000.0,0001.20,0000.39,0000.17
2022-11-10 12:58:00,,0822.1,4.99,0.00,22.2,21.9,00.0,30.9,24.2,09.2,0000.0,0001.18,0000.38,0000.16
2022-11-10 12:59:00,,0822.1,5.01,0.00,22.2,21.5,00.0,30.9,24.1,09.1,0000.0,0001.16,0000.39,0000.16
